This is the latest recevied weather packets stored in our database for station/object DL9LAF-4. If no packets are shown the sender has not sent any weather packets the latest 10 day(s).
| Time | Temp. | Humidity | Pressure | Rain* | Wind** | Luminosity | Snow |
|---|---|---|---|---|---|---|---|
| 1777742754 | 16.67° C | 67% | 991.9 hPa | 0 mm | - | - | - |
| 1777742154 | 17.22° C | 66% | 992 hPa | 0 mm | - | - | - |
| 1777741554 | 17.22° C | 65% | 992 hPa | 0 mm | - | - | - |
| 1777740954 | 17.78° C | 63% | 991.9 hPa | 0 mm | - | - | - |
| 1777740354 | 17.78° C | 61% | 991.9 hPa | 0 mm | - | - | - |
| 1777739754 | 18.33° C | 60% | 991.9 hPa | 0 mm | - | - | - |
| 1777739154 | 18.89° C | 56% | 991.9 hPa | 0 mm | - | - | - |
| 1777738554 | 19.44° C | 49% | 991.9 hPa | 0 mm | - | - | - |
| 1777737954 | 20° C | 47% | 991.9 hPa | 0 mm | - | - | - |
| 1777737354 | 20.56° C | 45% | 991.9 hPa | 0 mm | - | - | - |
| 1777736754 | 21.11° C | 45% | 991.9 hPa | 0 mm | - | - | - |
| 1777736154 | 21.67° C | 43% | 991.9 hPa | 0 mm | - | - | - |
| 1777735554 | 22.78° C | 43% | 992 hPa | 0 mm | - | - | - |
| 1777734954 | 23.89° C | 40% | 991.7 hPa | 0 mm | - | - | - |
| 1777734354 | 25° C | 35% | 991.7 hPa | 0 mm | - | - | - |
| 1777733754 | 25.56° C | 32% | 991.9 hPa | 0 mm | - | - | - |
| 1777733154 | 26.11° C | 32% | 991.9 hPa | 0 mm | - | - | - |
| 1777732554 | 26.67° C | 34% | 992 hPa | 0 mm | - | - | - |
| 1777731954 | 26.67° C | 32% | 992.2 hPa | 0 mm | - | - | - |
| 1777731354 | 26.67° C | 34% | 992.2 hPa | 0 mm | - | - | - |
| 1777730754 | 26.67° C | 32% | 992.5 hPa | 0 mm | - | - | - |
| 1777730154 | 26.67° C | 32% | 992.5 hPa | 0 mm | - | - | - |
| 1777729554 | 26.67° C | 33% | 992.5 hPa | 0 mm | - | - | - |
| 1777728954 | 26.67° C | 32% | 992.7 hPa | 0 mm | - | - | - |
| 1777728354 | 25.56° C | 34% | 992.7 hPa | 0 mm | - | - | - |
* Rain latest hour (hover to see other rain measurements)
** Current wind speed in m/s (hover to see current wind gust speed)